Location: London
(51.5166°N, 0.1046°W)
Time: 06:33:51
(UTC+00:00)

ISS - Visible Passes

Search period start: 21 November 2017 00:00
Search period end: 01 December 2017 00:00
Orbit: 402 x 407 km, 51.6° (Epoch: 21 November)

Date Brightness Start Highest point End Pass type
(mag) Time Alt. Az. Time Alt. Az. Time Alt. Az.
28 Nov -0.9 18:50:08 10° SW 18:50:32 13° SSW 18:50:32 13° SSW visible
29 Nov -2.0 17:58:19 10° SSW 18:00:27 21° SSE 18:00:27 21° SSE visible
30 Nov -1.5 17:06:57 10° S 17:08:44 14° SE 17:10:17 11° ESE visible
30 Nov -1.6 18:41:27 10° SW 18:42:56 24° SW 18:42:56 24° SW visible
